sat.trackr.live / text

‹ back to catalog

STARLINK-6219

NORAD 56892 · 2023-083S

PAYLOAD ACTIVE UNKNOWN

§ Identity

Operator
Country
US
Launch date
2023-06-12
Launch site
AFETR
Launch vehicle
Mass (kg)
RCS (m²)

Purposes: comms

External: N2YO · Heavens-Above · Gunter

§ Orbital elements

Epoch: 2026-05-25T01:09:15.857280Z

Period
94.27 min
Inclination
43.0056°
Eccentricity
0.0001911
Mean motion
15.27576217 rev/d
Perigee alt
481.7 km
Apogee alt
484.4 km
Semi-major
6,861.2 km
B*
3.3474e-5
RAAN
17.7815°
Arg perigee
264.1246°
Mean anomaly
95.9388°
Rev number
16,326

§ Raw data

STARLINK-62191 56892U 23083S   26145.04810020  .00000659  00000+0  33474-4 0  99932 56892  43.0056  17.7815 0001911 264.1246  95.9388 15.27576217163269

JSON: /api/v1/satellites/56892 · /tle

For live sub-satellite position, see the globe view (requires WebGL).

§ Visibility from observer

Set your observer location to see the next 7 days of passes ≥ 10°. The values pass through the URL so the page stays shareable.

No JS? Fill the form by hand. The geolocation button needs JavaScript.